FW2710 Weather Reports


Display with metric or nautical units.
time (UTC)temp
F
wind
direction
speed
MPH
gust
MPH
rain 1hr
in
rain 24hr
in
rain mn
in
humidity
%
barometer
mb
20260903005526 84 0 0.0 0.0 0.00 0.00 0.00 73 1014.5
20260903005026 85 0 0.0 0.0 0.00 0.00 0.00 72 1014.5
20260903004556 85 0 0.0 0.0 0.00 0.00 0.00 72 1014.6
20260903004026 85 0 0.0 0.0 0.00 0.00 0.00 72 1014.6
20260903003526 85 0 0.0 0.0 0.00 0.00 0.00 72 1014.6
20260903003045 85 0 0.0 0.0 0.00 0.00 0.00 72 1014.6
20260903002526 86 0 0.0 0.0 0.00 0.00 0.00 71 1014.6
20260903002025 86 0 0.0 0.0 0.00 0.00 0.00 71 1014.7
20260903001542 86 0 0.0 0.0 0.00 0.00 0.00 72 1014.6
20260903001026 87 0 0.0 0.0 0.00 0.00 0.00 72 1014.7
20260903000523 87 0 0.0 0.0 0.00 0.00 0.00 72 1014.6
20260903000053 87 0 0.0 0.0 0.00 0.00 0.00 72 1014.6
20260902235524 88 0 0.0 0.0 0.00 0.00 0.00 71 1014.7
20260902235030 88 0 0.0 0.0 0.00 0.00 0.00 71 1014.6
20260902234547 88 0 0.0 0.0 0.00 0.00 0.00 70 1014.6
20260902234026 89 0 0.0 0.0 0.00 0.00 0.00 70 1014.6
20260902233526 89 0 0.0 0.0 0.00 0.00 0.00 70 1014.6
20260902233046 89 0 0.0 0.0 0.00 0.00 0.00 69 1014.7
20260902232526 90 0 0.0 0.0 0.00 0.00 0.00 68 1014.7
20260902232024 90 0 0.0 0.0 0.00 0.00 0.00 68 1014.8
20260902231550 90 0 0.0 0.0 0.00 0.00 0.00 67 1014.8
20260902231026 91 0 0.0 0.0 0.00 0.00 0.00 65 1014.8
20260902230523 91 0 0.0 0.0 0.00 0.00 0.00 65 1014.9
20260902230049 92 0 0.0 0.0 0.00 0.00 0.00 67 1014.9
20260902225523 92 0 0.0 0.0 0.00 0.00 0.00 66 1014.8
20260902225023 92 0 0.0 0.0 0.00 0.00 0.00 63 1014.9
20260902224547 93 0 0.0 0.0 0.00 0.00 0.00 63 1014.8
20260902224029 93 0 0.0 0.0 0.00 0.00 0.00 62 1014.9
20260902223526 93 0 0.0 0.0 0.00 0.00 0.00 61 1014.9
20260902223054 93 0 0.0 0.0 0.00 0.00 0.00 64 1014.9
20260902222523 93 0 0.0 0.0 0.00 0.00 0.00 62 1014.9
20260902222024 93 0 0.0 0.0 0.00 0.00 0.00 62 1014.9
20260902221600 93 0 0.0 3.0 0.00 0.00 0.00 60 1014.8
20260902221027 93 0 0.0 3.0 0.00 0.00 0.00 59 1014.9
20260902220527 93 0 0.0 0.0 0.00 0.00 0.00 61 1014.9
20260902220055 93 0 0.0 0.0 0.00 0.00 0.00 61 1015.0
20260902215526 93 0 0.0 0.0 0.00 0.00 0.00 61 1015.0
20260902215028 93 0 0.0 0.0 0.00 0.00 0.00 60 1015.0
20260902214546 93 0 0.0 4.0 0.00 0.00 0.00 59 1015.0
20260902214026 93 0 0.0 4.0 0.00 0.00 0.00 61 1015.0
20260902213525 93 291 0.0 1.0 0.00 0.00 0.00 60 1015.0
20260902213053 93 0 0.0 0.0 0.00 0.00 0.00 61 1015.0
20260902212527 94 0 0.0 0.0 0.00 0.00 0.00 59 1015.1
20260902212027 94 0 0.0 0.0 0.00 0.00 0.00 61 1015.1
20260902211600 94 0 0.0 0.0 0.00 0.00 0.00 61 1015.1
20260902211026 94 0 0.0 0.0 0.00 0.00 0.00 61 1015.2
20260902210526 94 0 0.0 4.0 0.00 0.00 0.00 62 1015.3
20260902210052 94 0 0.0 4.0 0.00 0.00 0.00 59 1015.1
20260902205525 94 0 0.0 4.0 0.00 0.00 0.00 57 1015.1
20260902205028 94 0 0.0 3.0 0.00 0.00 0.00 57 1015.1
20260902204548 94 291 0.0 1.0 0.00 0.00 0.00 55 1015.2
20260902204027 94 0 0.0 4.0 0.00 0.00 0.00 59 1015.3
20260902203527 94 0 0.0 7.0 0.00 0.00 0.00 60 1015.2
20260902203048 94 0 0.0 7.0 0.00 0.00 0.00 60 1015.3
20260902202523 94 0 0.0 4.0 0.00 0.00 0.00 59 1015.3
20260902202026 94 0 0.0 4.0 0.00 0.00 0.00 58 1015.3
20260902201604 94 0 0.0 1.0 0.00 0.00 0.00 59 1015.2
20260902201027 94 0 0.0 9.0 0.00 0.00 0.00 58 1015.3
20260902200530 94 0 0.0 9.0 0.00 0.00 0.00 59 1015.3
20260902200052 94 0 0.0 4.0 0.00 0.00 0.00 59 1015.4
20260902195526 94 0 0.0 4.0 0.00 0.00 0.00 59 1015.5
20260902195022 94 0 0.0 4.0 0.00 0.00 0.00 57 1015.4
20260902194545 94 0 0.0 5.0 0.00 0.00 0.00 60 1015.5
20260902194029 94 0 0.0 6.0 0.00 0.00 0.00 57 1015.5
20260902193527 94 0 0.0 8.0 0.00 0.00 0.00 58 1015.7
20260902193049 94 291 0.0 8.0 0.00 0.00 0.00 58 1015.8
20260902192526 93 291 1.0 7.0 0.00 0.00 0.00 59 1015.8
20260902192025 93 0 0.0 4.0 0.00 0.00 0.00 59 1015.9
20260902191549 94 0 0.0 4.0 0.00 0.00 0.00 58 1015.9
20260902191025 93 0 0.0 3.0 0.00 0.00 0.00 61 1015.9
20260902190525 93 0 0.0 3.0 0.00 0.00 0.00 60 1015.9
20260902190053 93 0 0.0 4.0 0.00 0.00 0.00 60 1016.0
20260902185525 93 291 0.0 4.0 0.00 0.00 0.00 62 1016.1
20260902185023 93 0 0.0 4.0 0.00 0.00 0.00 60 1016.1
20260902184605 93 0 0.0 4.0 0.00 0.00 0.00 60 1016.1
20260902184026 93 0 0.0 0.0 0.00 0.00 0.00 61 1016.1
20260902183525 93 0 0.0 4.0 0.00 0.00 0.00 61 1016.0
20260902183051 93 0 0.0 4.0 0.00 0.00 0.00 61 1016.1
20260902182525 93 0 0.0 6.0 0.00 0.00 0.00 61 1016.1
20260902182027 93 0 0.0 6.0 0.00 0.00 0.00 60 1016.2
20260902181554 93 0 0.0 4.0 0.00 0.00 0.00 62 1016.2
20260902181026 93 0 0.0 3.0 0.00 0.00 0.00 61 1016.2
20260902180526 93 0 0.0 4.0 0.00 0.00 0.00 62 1016.4
20260902180055 92 0 0.0 4.0 0.00 0.00 0.00 65 1016.4
20260902175525 92 0 0.0 3.0 0.00 0.00 0.00 65 1016.4
20260902175024 92 0 0.0 6.0 0.00 0.00 0.00 65 1016.4
20260902174550 92 0 0.0 6.0 0.00 0.00 0.00 65 1016.4
20260902174024 92 0 0.0 6.0 0.00 0.00 0.00 65 1016.3
20260902173525 92 0 0.0 5.0 0.00 0.00 0.00 64 1016.3
20260902173046 91 0 0.0 6.0 0.00 0.00 0.00 65 1016.5
20260902172529 91 0 0.0 6.0 0.00 0.00 0.00 65 1016.5
20260902172029 90 0 0.0 1.0 0.00 0.00 0.00 66 1016.4
20260902171556 90 0 0.0 1.0 0.00 0.00 0.00 66 1016.3
20260902171025 90 0 0.0 0.0 0.00 0.00 0.00 66 1016.4
20260902170526 89 0 0.0 4.0 0.00 0.00 0.00 67 1016.4
20260902170045 89 0 0.0 6.0 0.00 0.00 0.00 68 1016.4
20260902165525 89 0 0.0 7.0 0.00 0.00 0.00 67 1016.6
20260902165026 88 291 1.0 7.0 0.00 0.00 0.00 67 1016.7
20260902164558 88 0 0.0 4.0 0.00 0.00 0.00 69 1016.6
20260902164023 88 0 0.0 8.0 0.00 0.00 0.00 68 1016.7
20260902163525 88 0 0.0 8.0 0.00 0.00 0.00 68 1016.7
20260902163049 88 0 0.0 8.0 0.00 0.00 0.00 69 1016.7
20260902162525 87 0 0.0 0.0 0.00 0.00 0.00 69 1016.7
20260902162025 87 0 0.0 5.0 0.00 0.00 0.00 69 1016.7
20260902161558 87 0 0.0 7.0 0.00 0.00 0.00 69 1016.7
20260902161026 87 0 0.0 7.0 0.00 0.00 0.00 68 1016.8
20260902160525 87 291 0.0 6.0 0.00 0.00 0.00 68 1016.8
20260902160049 87 291 0.0 5.0 0.00 0.00 0.00 69 1016.7
20260902155523 86 0 0.0 6.0 0.00 0.00 0.00 70 1016.9
20260902155027 86 0 1.0 6.0 0.00 0.00 0.00 69 1016.9
20260902154607 86 0 0.0 6.0 0.00 0.00 0.00 70 1016.9
20260902154027 86 0 0.0 5.0 0.00 0.00 0.00 70 1016.9
20260902153531 85 0 0.0 6.0 0.00 0.00 0.00 71 1016.9
20260902153047 85 0 1.0 6.0 0.00 0.00 0.00 72 1016.8
20260902152527 85 0 0.0 6.0 0.00 0.00 0.00 72 1016.8
20260902152028 85 0 0.0 4.0 0.00 0.00 0.00 71 1016.6
20260902151555 85 0 0.0 4.0 0.00 0.00 0.00 71 1016.6
20260902151027 84 0 0.0 4.0 0.00 0.00 0.00 72 1016.6
20260902150529 84 0 0.0 6.0 0.00 0.00 0.00 73 1016.6
20260902150047 84 0 0.0 6.0 0.00 0.00 0.00 72 1016.6
20260902145525 84 0 0.0 3.0 0.00 0.00 0.00 73 1016.6
20260902145030 83 0 0.0 3.0 0.00 0.00 0.00 73 1016.7
20260902144549 83 0 0.0 0.0 0.00 0.00 0.00 75 1016.6
20260902144027 82 0 0.0 0.0 0.00 0.00 0.00 75 1016.6
20260902143531 82 0 0.0 0.0 0.00 0.00 0.00 75 1016.6
20260902143045 82 0 0.0 8.0 0.00 0.00 0.00 76 1016.5
20260902142527 81 0 0.0 8.0 0.00 0.00 0.00 76 1016.6
20260902142028 81 0 0.0 8.0 0.00 0.00 0.00 76 1016.6
20260902141549 81 0 0.0 4.0 0.00 0.00 0.00 77 1016.6
20260902141027 80 291 0.0 3.0 0.00 0.00 0.00 77 1016.5
20260902140528 80 0 0.0 3.0 0.00 0.00 0.00 78 1016.5
20260902140045 80 0 0.0 2.0 0.00 0.00 0.00 78 1016.5
20260902135526 79 0 0.0 0.0 0.00 0.00 0.00 78 1016.6
20260902135026 79 0 0.0 0.0 0.00 0.00 0.00 79 1016.6
20260902134546 79 0 0.0 0.0 0.00 0.00 0.00 79 1016.6
20260902134027 79 0 0.0 0.0 0.00 0.00 0.00 80 1016.6
20260902133527 79 0 0.0 6.0 0.00 0.00 0.00 80 1016.7
20260902133059 78 0 0.0 6.0 0.00 0.00 0.00 80 1016.8
20260902132531 78 291 0.0 1.0 0.00 0.00 0.00 80 1016.8
20260902132027 78 0 0.0 3.0 0.00 0.00 0.00 81 1016.8
20260902131547 78 0 0.0 3.0 0.00 0.00 0.00 82 1016.8
20260902131029 77 0 0.0 3.0 0.00 0.00 0.00 81 1016.8
20260902130527 77 0 0.0 0.0 0.00 0.00 0.00 82 1016.8
20260902130045 77 0 0.0 0.0 0.00 0.00 0.00 82 1016.8
20260902125527 77 0 0.0 0.0 0.00 0.00 0.00 82 1016.8
20260902125027 76 0 0.0 0.0 0.00 0.00 0.00 83 1016.7
20260902124553 76 0 0.0 0.0 0.00 0.00 0.00 83 1016.7
20260902124024 76 0 0.0 0.0 0.00 0.00 0.00 83 1016.8
20260902123526 76 0 0.0 0.0 0.00 0.00 0.00 83 1016.8
20260902123048 75 0 0.0 0.0 0.00 0.00 0.00 84 1016.7
20260902122532 75 0 0.0 0.0 0.00 0.00 0.00 84 1016.7
20260902122027 75 0 0.0 0.0 0.00 0.00 0.00 84 1016.8
20260902121546 75 0 0.0 0.0 0.00 0.00 0.00 84 1016.8
20260902121026 75 0 0.0 0.0 0.00 0.00 0.00 84 1016.8
20260902120528 75 0 0.0 0.0 0.00 0.00 0.00 84 1016.8
20260902120052 75 0 0.0 0.0 0.00 0.00 0.00 84 1016.7
20260902115524 74 0 0.0 0.0 0.00 0.00 0.00 85 1016.7
20260902115026 74 0 0.0 0.0 0.00 0.00 0.00 85 1016.7
20260902114547 74 0 0.0 0.0 0.00 0.00 0.00 85 1016.6
20260902114027 74 0 0.0 0.0 0.00 0.00 0.00 85 1016.5
20260902113527 74 0 0.0 0.0 0.00 0.00 0.00 85 1016.6
20260902113046 74 0 0.0 0.0 0.00 0.00 0.00 84 1016.6
20260902112528 74 0 0.0 0.0 0.00 0.00 0.00 84 1016.5
20260902112027 74 0 0.0 0.0 0.00 0.00 0.00 84 1016.5
20260902111557 75 0 0.0 0.0 0.00 0.00 0.00 84 1016.5
20260902111024 75 0 0.0 0.0 0.00 0.00 0.00 83 1016.5
20260902110524 75 0 0.0 0.0 0.00 0.00 0.00 83 1016.4
20260902110047 75 0 0.0 0.0 0.00 0.00 0.00 83 1016.4
20260902105526 75 0 0.0 0.0 0.00 0.00 0.00 83 1016.3
20260902105024 75 0 0.0 0.0 0.00 0.00 0.00 83 1016.3
20260902104548 75 0 0.0 0.0 0.00 0.00 0.00 83 1016.2
20260902104028 75 0 0.0 0.0 0.00 0.00 0.00 83 1016.2
20260902103526 75 0 0.0 0.0 0.00 0.00 0.00 82 1016.2
20260902103047 75 0 0.0 0.0 0.00 0.00 0.00 82 1016.2
20260902102526 75 0 0.0 0.0 0.00 0.00 0.00 82 1016.3
20260902102025 75 0 0.0 0.0 0.00 0.00 0.00 82 1016.3
20260902101555 75 0 0.0 0.0 0.00 0.00 0.00 82 1016.3
20260902101026 76 0 0.0 0.0 0.00 0.00 0.00 82 1016.3
20260902100524 75 0 0.0 0.0 0.00 0.00 0.00 82 1016.3
20260902100045 75 0 0.0 0.0 0.00 0.00 0.00 81 1016.2
20260902095525 76 0 0.0 0.0 0.00 0.00 0.00 81 1016.3
20260902095026 76 0 0.0 0.0 0.00 0.00 0.00 81 1016.4
20260902094546 76 0 0.0 0.0 0.00 0.00 0.00 81 1016.4
20260902094027 76 0 0.0 0.0 0.00 0.00 0.00 80 1016.4
20260902093527 76 0 0.0 0.0 0.00 0.00 0.00 80 1016.4
20260902093116 76 0 0.0 0.0 0.00 0.00 0.00 79 1016.4
20260902092524 77 0 0.0 0.0 0.00 0.00 0.00 79 1016.3
20260902092027 77 0 0.0 0.0 0.00 0.00 0.00 78 1016.2
20260902091553 77 0 0.0 0.0 0.00 0.00 0.00 78 1016.1
20260902091024 77 0 0.0 0.0 0.00 0.00 0.00 77 1016.2
20260902090533 78 0 0.0 0.0 0.00 0.00 0.00 77 1016.1
20260902090054 78 0 0.0 0.0 0.00 0.00 0.00 76 1016.1
20260902085528 78 0 0.0 0.0 0.00 0.00 0.00 76 1016.1
20260902085026 78 0 0.0 0.0 0.00 0.00 0.00 76 1016.0
20260902084554 78 0 0.0 2.0 0.00 0.00 0.00 76 1016.0
20260902084029 78 0 0.0 3.0 0.00 0.00 0.00 75 1015.9
20260902083529 78 0 0.0 3.0 0.00 0.00 0.00 75 1016.0
20260902083054 78 0 0.0 0.0 0.00 0.00 0.00 75 1016.0
20260902082527 78 0 0.0 0.0 0.00 0.00 0.00 75 1016.0
20260902082027 78 0 0.0 0.0 0.00 0.00 0.00 75 1016.0
20260902081608 79 0 0.0 3.0 0.00 0.00 0.00 74 1016.0
20260902081027 79 0 0.0 4.0 0.00 0.00 0.00 74 1015.9
20260902080527 79 0 0.0 7.0 0.00 0.00 0.00 73 1016.0
20260902080047 79 0 0.0 7.0 0.00 0.00 0.00 73 1015.9
20260902075526 79 0 0.0 3.0 0.00 0.00 0.00 74 1015.9
20260902075027 78 0 0.0 3.0 0.00 0.00 0.00 74 1015.9
20260902074545 78 0 0.0 0.0 0.00 0.00 0.00 74 1016.0
20260902074026 78 0 0.0 0.0 0.00 0.00 0.00 74 1015.9
20260902073528 78 0 0.0 0.0 0.00 0.00 0.00 74 1015.9
20260902073051 78 0 0.0 0.0 0.00 0.00 0.00 74 1015.8
20260902072526 78 0 0.0 0.0 0.00 0.00 0.00 74 1015.9
20260902072027 78 0 0.0 0.0 0.00 0.00 0.00 74 1016.0
20260902071559 78 0 0.0 0.0 0.00 0.00 0.00 74 1015.9
20260902071027 78 0 0.0 0.0 0.00 0.00 0.00 74 1015.9
20260902070527 78 0 0.0 0.0 0.00 0.00 0.00 74 1015.9
20260902070050 78 0 0.0 0.0 0.00 0.00 0.00 75 1016.1
20260902065529 78 0 0.0 0.0 0.00 0.00 0.00 75 1016.2
20260902065027 78 0 0.0 0.0 0.00 0.00 0.00 75 1016.1
20260902064548 78 0 0.0 0.0 0.00 0.00 0.00 76 1016.3
20260902064028 78 0 0.0 0.0 0.00 0.00 0.00 77 1016.4
20260902063530 77 0 0.0 0.0 0.00 0.00 0.00 77 1016.4
20260902063051 77 0 0.0 0.0 0.00 0.00 0.00 78 1016.4
20260902062528 77 0 0.0 0.0 0.00 0.00 0.00 78 1016.3
20260902062030 77 0 0.0 0.0 0.00 0.00 0.00 79 1016.3
20260902061550 77 0 0.0 0.0 0.00 0.00 0.00 79 1016.4
20260902061026 76 0 0.0 0.0 0.00 0.00 0.00 80 1016.3
20260902060527 76 0 0.0 0.0 0.00 0.00 0.00 80 1016.3
20260902060109 76 0 0.0 0.0 0.00 0.00 0.00 81 1016.4
20260902055526 76 0 0.0 0.0 0.00 0.00 0.00 81 1016.3
20260902055027 76 0 0.0 0.0 0.00 0.00 0.00 81 1016.3
20260902054550 76 0 0.0 0.0 0.00 0.00 0.00 81 1016.4
20260902054027 76 0 0.0 0.0 0.00 0.00 0.00 82 1016.4
20260902053531 77 0 0.0 0.0 0.00 0.00 0.00 82 1016.4
20260902053053 77 0 0.0 0.0 0.00 0.00 0.00 82 1016.4
20260902052529 77 0 0.0 0.0 0.00 0.00 0.00 82 1016.3
20260902052026 77 0 0.0 0.0 0.00 0.00 0.00 82 1016.3
20260902051546 77 0 0.0 0.0 0.00 0.00 0.00 82 1016.4
20260902051027 77 0 0.0 0.0 0.00 0.00 0.00 82 1016.3
20260902050529 77 0 0.0 0.0 0.00 0.00 0.00 82 1016.2
20260902050108 77 0 0.0 0.0 0.00 0.00 0.00 82 1016.3
20260902045525 77 0 0.0 0.0 0.00 0.00 0.00 82 1016.3
20260902045024 77 0 0.0 0.0 0.00 0.00 0.00 82 1016.3
20260902044606 77 0 0.0 0.0 0.00 0.00 0.00 82 1016.2
20260902044027 78 0 0.0 0.0 0.00 0.00 0.00 82 1016.3
20260902043526 78 0 0.0 0.0 0.00 0.00 0.00 82 1016.3
20260902043046 78 0 0.0 0.0 0.00 0.00 0.00 82 1016.2
20260902042527 78 0 0.0 0.0 0.00 0.00 0.00 82 1016.3
20260902042029 78 0 0.0 0.0 0.00 0.00 0.00 82 1016.3
20260902041553 78 0 0.0 0.0 0.00 0.00 0.00 82 1016.2
20260902041030 78 0 0.0 0.0 0.00 0.00 0.00 82 1016.1
20260902040526 78 0 0.0 0.0 0.00 0.00 0.00 82 1016.2
20260902040104 78 0 0.0 0.0 0.00 0.00 0.00 82 1016.1
20260902035524 78 0 0.0 0.0 0.00 0.00 0.00 82 1016.3
20260902035027 78 0 0.0 0.0 0.00 0.00 0.00 82 1016.3
20260902034556 79 0 0.0 0.0 0.00 0.00 0.00 82 1016.3
20260902034027 79 0 0.0 0.0 0.00 0.00 0.00 81 1016.3
20260902033523 79 0 0.0 0.0 0.00 0.00 0.00 81 1016.3
20260902033057 79 0 0.0 0.0 0.00 0.00 0.00 81 1016.3
20260902032527 79 0 0.0 0.0 0.00 0.00 0.00 81 1016.3
20260902032024 79 0 0.0 0.0 0.00 0.00 0.00 81 1016.3
20260902031549 79 0 0.0 0.0 0.00 0.00 0.00 81 1016.3
20260902031026 79 0 0.0 0.0 0.00 0.00 0.00 81 1016.4
20260902030526 79 0 0.0 0.0 0.00 0.00 0.00 81 1016.3
20260902030045 79 0 0.0 0.0 0.00 0.00 0.00 81 1016.4
20260902025526 79 0 0.0 0.0 0.00 0.00 0.00 81 1016.4
20260902025024 80 0 0.0 0.0 0.00 0.00 0.00 81 1016.4
20260902024555 80 0 0.0 0.0 0.00 0.00 0.00 81 1016.3
20260902024027 80 0 0.0 0.0 0.00 0.00 0.00 80 1016.3
20260902023523 80 0 0.0 0.0 0.00 0.00 0.00 80 1016.2
20260902023048 80 0 0.0 0.0 0.00 0.00 0.00 81 1016.2
20260902022526 80 0 0.0 0.0 0.00 0.00 0.00 81 1016.3
20260902022029 80 0 0.0 0.0 0.00 0.00 0.00 81 1016.2
20260902021552 80 0 0.0 0.0 0.00 0.00 0.00 81 1016.2
20260902021029 81 0 0.0 0.0 0.00 0.00 0.00 81 1016.1
20260902020527 80 0 0.0 0.0 0.00 0.00 0.00 81 1016.1
20260902020045 80 0 0.0 0.0 0.00 0.00 0.00 81 1016.1
20260902015526 81 0 0.0 0.0 0.00 0.00 0.00 81 1016.0
20260902015026 81 0 0.0 0.0 0.00 0.00 0.00 80 1016.1
20260902014550 81 0 0.0 0.0 0.00 0.00 0.00 79 1016.1
20260902014026 81 0 0.0 0.0 0.00 0.00 0.00 78 1016.0
20260902013526 82 0 0.0 0.0 0.00 0.00 0.00 78 1016.0
20260902013047 82 0 0.0 0.0 0.00 0.00 0.00 77 1015.9
20260902012523 82 0 0.0 0.0 0.00 0.00 0.00 76 1015.8
20260902012025 83 0 0.0 0.0 0.00 0.00 0.00 75 1015.9
20260902011548 83 0 0.0 0.0 0.00 0.00 0.00 74 1015.9
20260902011027 83 0 0.0 0.0 0.00 0.00 0.00 74 1015.8
20260902010526 83 0 0.0 0.0 0.00 0.00 0.00 73 1015.8
20260902010046 83 0 0.0 0.0 0.00 0.00 0.00 73 1015.7